Regional Weather Roundup
Issued by NWS

Home | Current Version | Previous Version | Text Only | Print | Product List | Glossary On
Versions: 1 2 3 4 5 6 7 8 9 10 11 12 13 14 15 16 17 18 19 20 21 22 23 24 25 26 27 28 29 30 31 32 33 34 35 36 37 38 39 40 41 42 43 44 45 46 47 48 49 50
000
ASUS44 KLIX 241210
RWRLA
LOUISIANA WEATHER ROUNDUP
NATIONAL WEATHER SERVICE NEW ORLEANS LA
600 AM CST MON NOV 24 2014

NOTE: "FAIR" INDICATES FEW OR NO CLOUDS BELOW 12,000 FEET WITH NO
      SIGNIFICANT WEATHER AND/OR OBSTRUCTIONS TO VISIBILITY.
      SKY/WX - SKY CONDITION AND SIGNIFICANT WEATHER.
      TMP - AIR TEMPERATURE.    DP   - DEWPOINT TEMPERATURE.
      RH  - RELATIVE HUMIDITY.  PRES - PRESSURE.
      HX  - HEAT INDEX.         WCI  - WIND CHILL INDEX.

*  THESE STATIONS ARE NOT NWS OR FAA STATIONS AND ARE NOT UNDER
   NWS QUALITY CONTROL.

LAZ040-048-061>063-065-066-069-241300-
SOUTHEAST LOUISIANA

CITY           SKY/WX    TMP DP  RH WIND       PRES   REMARKS
N.O. AUDUBON   NOT AVBL
N.O. INTL ARPT PTCLDY    66  64  93 SW6       29.81R
6HR MIN TEMP:  64; 6HR MAX TEMP:  70;

N.O. LAKEFRONT PTCLDY    65  63  93 SW12      29.81R FOG
6HR MIN TEMP:  65; 6HR MAX TEMP:  69;

N.O. DOWNTOWN* CLOUDY    66  63  88 SW5       29.82R
6HR MIN TEMP:  66; 6HR MAX TEMP:  68;

SLIDELL        MOCLDY    67  65  93 VRB5      29.80R
6HR MIN TEMP:  66; 6HR MAX TEMP:  68;

BATON ROUGE    CLEAR     60  58  92 W6        29.81R
6HR MIN TEMP:  58; 6HR MAX TEMP:  67;

BOOTHVILLE     CLEAR     67  67 100 W10       29.81R FOG
6HR MIN TEMP:  64; 6HR MAX TEMP:  68;

BELLE CHASSE   FOG       68  65  90 W6        29.80R VSB 1/2
6HR MIN TEMP:  65; 6HR MAX TEMP:  69;

BOGALUSA*        N/A     66  63  88 SW5       29.82R FOG
6HR MIN TEMP:  65; 6HR MAX TEMP:  71;

NEW ROADS*     FAIR      58  55  89 W3        29.82R
6HR MIN TEMP:  58; 6HR MAX TEMP:  66;

GONZALES*      PTSUNNY   63  63 100 CALM      29.81R FOG
6HR MIN TEMP:  63; 6HR MAX TEMP:  66;

HAMMOND*       CLEAR     64  63  94 W3        29.82R
HOUMA*         PTCLDY    68  66  94 SW9       29.80R FOG
PORT FOURCHON* SUNNY     70  68  94 SW7       29.84R FOG

$$

LAZ041-044-053-054-241300-
SOUTHWEST LOUISIANA

CITY           SKY/WX    TMP DP  RH WIND       PRES   REMARKS
LAKE CHARLES   CLEAR     55  47  74 NW10      29.86R
6HR MIN TEMP:  55; 6HR MAX TEMP:  64;

LAFAYETTE      CLEAR     60  53  77 NW10      29.83R
6HR MIN TEMP:  60; 6HR MAX TEMP:  68;

PATTERSON      PTCLDY    64  63  94 W6        29.84R
6HR MIN TEMP:  64; 6HR MAX TEMP:  68;

SALT POINT       N/A    N/A N/A N/A VRB5      29.82R
                                      6HR PCP:  0.02;

NEW IBERIA     CLEAR     60  57  89 NW5       29.84R
6HR MIN TEMP:  60; 6HR MAX TEMP:  67;

CHENAULT AIRPK NOT AVBL

$$

LAZ027-028-241300-
CENTRAL LOUISIANA

CITY           SKY/WX    TMP DP  RH WIND       PRES   REMARKS
FORT POLK      CLEAR     49  44  81 NW13G20   29.85R
6HR MIN TEMP:  49; 6HR MAX TEMP:  61;

ALEXANDRIA INT CLEAR     51  44  77 NW13      29.84R
6HR MIN TEMP:  51; 6HR MAX TEMP:  62;

ALEXANDRIA     CLEAR     52  43  71 NW9G20    29.84R
6HR MIN TEMP:  52; 6HR MAX TEMP:  63;


$$

LAZ001-002-241300-
NORTHWEST LOUISIANA

CITY           SKY/WX    TMP DP  RH WIND       PRES   REMARKS
SHREVEPORT     CLEAR     48  40  73 NW12      29.88R
6HR MIN TEMP:  48; 6HR MAX TEMP:  59;

BARKSDALE AFB  CLEAR     48  39  70 NW13      29.88R
6HR MIN TEMP:  48; 6HR MAX TEMP:  59;

DTN SHREVEPORT CLEAR     48  38  68 NW10G18   29.88R
6HR MIN TEMP:  48; 6HR MAX TEMP:  58;


$$

LAZ014-016-241300-
NORTHEAST LOUISIANA

CITY           SKY/WX    TMP DP  RH WIND       PRES   REMARKS
MONROE         CLEAR     51  43  74 NW9       29.85R
6HR MIN TEMP:  51; 6HR MAX TEMP:  61;

TALLULAH       PTCLDY    52  44  74 NW7       29.83R
6HR MIN TEMP:  52; 6HR MAX TEMP:  64;


$$



USA.gov is the U.S. government's official web portal to all federal, state and local government web resources and services.